| time (UTC) | temp F | wind direction | speed MPH | gust MPH | rain 1hr in | rain 24hr in | rain mn in | humidity % | barometer mb |
| 20260506002041 | 58 | 270 | 1.0 | 7.0 | 0.04 | 0.17 | 0.17 | 90 | 1004.7 |
| 20260506001037 | 58 | 270 | 2.0 | 5.0 | 0.04 | 0.17 | 0.17 | 90 | 1004.8 |
| 20260506000031 | 58 | 248 | 2.0 | 4.0 | 0.04 | 0.17 | 0.17 | 90 | 1004.6 |
| 20260505235025 | 58 | 270 | 3.0 | 7.0 | 0.02 | 0.15 | 0.15 | 89 | 1004.7 |
| 20260505234019 | 59 | 270 | 3.0 | 7.0 | 0.02 | 0.15 | 0.15 | 88 | 1004.5 |
| 20260505233036 | 59 | 270 | 3.0 | 8.0 | 0.01 | 0.13 | 0.13 | 89 | 1004.3 |
| 20260505232119 | 59 | 270 | 3.0 | 6.0 | 0.01 | 0.13 | 0.13 | 89 | 1004.1 |
| 20260505231115 | 59 | 248 | 3.0 | 7.0 | 0.01 | 0.13 | 0.13 | 89 | 1003.9 |
| 20260505230107 | 59 | 270 | 2.0 | 5.0 | 0.01 | 0.13 | 0.13 | 89 | 1003.9 |
| 20260505225103 | 59 | 248 | 2.0 | 6.0 | 0.01 | 0.13 | 0.13 | 87 | 1003.7 |
| 20260505224057 | 60 | 248 | 3.0 | 9.0 | 0.01 | 0.13 | 0.13 | 86 | 1003.4 |
| 20260505223055 | 61 | 270 | 2.0 | 6.0 | 0.00 | 0.12 | 0.12 | 84 | 1003.1 |
| 20260505222050 | 61 | 270 | 3.0 | 6.0 | 0.00 | 0.12 | 0.12 | 83 | 1002.8 |
| 20260505221043 | 62 | 293 | 4.0 | 9.0 | 0.02 | 0.12 | 0.12 | 82 | 1002.7 |
| 20260505220058 | 62 | 270 | 4.0 | 10.0 | 0.02 | 0.12 | 0.12 | 82 | 1002.5 |
| 20260505215031 | 62 | 270 | 5.0 | 12.0 | 0.02 | 0.12 | 0.12 | 81 | 1002.4 |
| 20260505214027 | 62 | 293 | 7.0 | 17.0 | 0.02 | 0.12 | 0.12 | 81 | 1002.0 |
| 20260505213023 | 62 | 293 | 9.0 | 21.0 | 0.02 | 0.12 | 0.12 | 81 | 1001.8 |
| 20260505212019 | 63 | 293 | 12.0 | 25.0 | 0.02 | 0.12 | 0.12 | 78 | 1001.7 |
| 20260505211016 | 70 | 270 | 9.0 | 22.0 | 0.00 | 0.10 | 0.10 | 66 | 1001.2 |
| 20260505210118 | 70 | 270 | 9.0 | 23.0 | 0.00 | 0.10 | 0.10 | 66 | 1000.5 |
| 20260505205101 | 71 | 270 | 9.0 | 23.0 | 0.00 | 0.10 | 0.10 | 66 | 1000.2 |
| 20260505204059 | 71 | 270 | 8.0 | 16.0 | 0.00 | 0.10 | 0.10 | 67 | 1000.3 |
| 20260505203112 | 70 | 248 | 9.0 | 20.0 | 0.00 | 0.10 | 0.10 | 68 | 1000.4 |
| 20260505202049 | 70 | 248 | 7.0 | 16.0 | 0.00 | 0.10 | 0.10 | 70 | 1000.3 |
| 20260505201045 | 70 | 248 | 5.0 | 13.0 | 0.00 | 0.10 | 0.10 | 72 | 1000.5 |
| 20260505200100 | 69 | 248 | 4.0 | 12.0 | 0.00 | 0.10 | 0.10 | 75 | 1000.4 |
| 20260505195036 | 68 | 270 | 4.0 | 10.0 | 0.00 | 0.10 | 0.10 | 77 | 1000.8 |
| 20260505194030 | 68 | 248 | 3.0 | 11.0 | 0.00 | 0.10 | 0.10 | 77 | 1001.1 |
| 20260505193024 | 67 | 225 | 3.0 | 9.0 | 0.00 | 0.10 | 0.10 | 80 | 1001.1 |
| 20260505192018 | 66 | 225 | 3.0 | 7.0 | 0.00 | 0.10 | 0.10 | 83 | 1001.1 |
| 20260505191120 | 65 | 225 | 2.0 | 7.0 | 0.00 | 0.10 | 0.10 | 83 | 1001.5 |
| 20260505190124 | 64 | 203 | 1.0 | 3.0 | 0.00 | 0.10 | 0.10 | 86 | 1001.6 |
| 20260505185100 | 62 | 158 | 1.0 | 4.0 | 0.00 | 0.10 | 0.10 | 89 | 1001.5 |
| 20260505184057 | 61 | 158 | 1.0 | 3.0 | 0.01 | 0.10 | 0.10 | 90 | 1001.6 |
| 20260505183040 | 60 | 135 | 1.0 | 3.0 | 0.02 | 0.10 | 0.10 | 91 | 1001.8 |
| 20260505182034 | 59 | 158 | 1.0 | 4.0 | 0.05 | 0.10 | 0.10 | 91 | 1001.9 |
| 20260505181037 | 59 | 158 | 1.0 | 2.0 | 0.06 | 0.10 | 0.10 | 92 | 1002.2 |
| 20260505180118 | 59 | 248 | 1.0 | 3.0 | 0.07 | 0.10 | 0.10 | 92 | 1002.2 |
| 20260505175056 | 58 | 293 | 2.0 | 4.0 | 0.07 | 0.10 | 0.10 | 92 | 1002.2 |
| 20260505174053 | 58 | 315 | 2.0 | 5.0 | 0.06 | 0.09 | 0.09 | 91 | 1002.5 |
| 20260505173048 | 59 | 315 | 2.0 | 6.0 | 0.07 | 0.08 | 0.08 | 90 | 1002.3 |
| 20260505172043 | 59 | 315 | 3.0 | 7.0 | 0.05 | 0.05 | 0.05 | 89 | 1002.3 |
| 20260505171047 | 60 | 315 | 2.0 | 7.0 | 0.04 | 0.04 | 0.04 | 87 | 1002.3 |
| 20260505170022 | 60 | 293 | 1.0 | 3.0 | 0.03 | 0.03 | 0.03 | 85 | 1002.1 |
| 20260505165020 | 60 | 270 | 2.0 | 5.0 | 0.03 | 0.03 | 0.03 | 84 | 1002.2 |
| 20260505164132 | 60 | 270 | 3.0 | 7.0 | 0.03 | 0.03 | 0.03 | 83 | 1002.4 |
| 20260505163104 | 62 | 270 | 3.0 | 7.0 | 0.01 | 0.01 | 0.01 | 78 | 1003.1 |
| 20260505162120 | 63 | 270 | 3.0 | 10.0 | 0.00 | 0.00 | 0.00 | 76 | 1002.7 |
| 20260505161056 | 63 | 248 | 3.0 | 9.0 | 0.00 | 0.00 | 0.00 | 76 | 1003.1 |
| 20260505153029 | 65 | 225 | 6.0 | 17.0 | 0.00 | 0.01 | 0.00 | 72 | 1003.1 |
| 20260505152024 | 66 | 225 | 5.0 | 20.0 | 0.00 | 0.02 | 0.00 | 70 | 1002.9 |
| 20260505151017 | 67 | 225 | 6.0 | 17.0 | 0.00 | 0.02 | 0.00 | 68 | 1003.1 |
| 20260505150116 | 66 | 225 | 6.0 | 16.0 | 0.00 | 0.04 | 0.00 | 66 | 1003.4 |
| 20260505140108 | 62 | 68 | 1.0 | 2.0 | 0.00 | 0.13 | 0.00 | 67 | 1003.6 |
| 20260505124113 | 54 | 113 | 1.0 | 3.0 | 0.00 | 0.15 | 0.00 | 76 | 1003.9 |
| 20260505123107 | 54 | 90 | 1.0 | 3.0 | 0.00 | 0.15 | 0.00 | 77 | 1004.0 |
| 20260505122103 | 53 | 90 | 1.0 | 2.0 | 0.00 | 0.15 | 0.00 | 78 | 1004.1 |
| 20260505121120 | 52 | 23 | 1.0 | 2.0 | 0.00 | 0.15 | 0.00 | 80 | 1004.2 |
| 20260505120055 | 51 | 23 | 1.0 | 3.0 | 0.00 | 0.15 | 0.00 | 80 | 1004.3 |
| 20260505115051 | 50 | 23 | 1.0 | 2.0 | 0.00 | 0.15 | 0.00 | 80 | 1004.4 |
| 20260505114047 | 50 | 23 | 1.0 | 4.0 | 0.00 | 0.15 | 0.00 | 82 | 1004.4 |
| 20260505113043 | 50 | 315 | 1.0 | 3.0 | 0.00 | 0.15 | 0.00 | 80 | 1004.5 |
| 20260505112039 | 50 | 0.0 | 2.0 | 0.00 | 0.15 | 0.00 | 82 | 1004.5 | |
| 20260505111034 | 49 | 0.0 | 2.0 | 0.00 | 0.15 | 0.00 | 84 | 1004.3 | |
| 20260505102016 | 44 | 270 | 1.0 | 2.0 | 0.00 | 0.15 | 0.00 | 90 | 1004.3 |
| 20260505101117 | 43 | 0.0 | 2.0 | 0.00 | 0.15 | 0.00 | 90 | 1004.4 | |
| 20260505100113 | 43 | 0.0 | 3.0 | 0.00 | 0.15 | 0.00 | 90 | 1004.5 | |
| 20260505095108 | 42 | 0.0 | 1.0 | 0.00 | 0.15 | 0.00 | 90 | 1004.6 | |
| 20260505094103 | 43 | 0.0 | 1.0 | 0.00 | 0.15 | 0.00 | 90 | 1004.7 | |
| 20260505093119 | 43 | 0.0 | 3.0 | 0.00 | 0.15 | 0.00 | 90 | 1004.7 | |
| 20260505092055 | 43 | 0.0 | 2.0 | 0.00 | 0.15 | 0.00 | 90 | 1004.7 | |
| 20260505091049 | 43 | 0.0 | 2.0 | 0.00 | 0.15 | 0.00 | 90 | 1004.9 | |
| 20260505090043 | 42 | 0.0 | 1.0 | 0.00 | 0.15 | 0.00 | 91 | 1004.8 | |
| 20260505085039 | 42 | 0.0 | 1.0 | 0.00 | 0.15 | 0.00 | 90 | 1004.9 | |
| 20260505084033 | 43 | 0.0 | 0.0 | 0.00 | 0.15 | 0.00 | 90 | 1004.8 | |
| 20260505083029 | 43 | 0.0 | 0.0 | 0.00 | 0.15 | 0.00 | 90 | 1004.9 | |
| 20260505082025 | 42 | 0.0 | 1.0 | 0.00 | 0.15 | 0.00 | 89 | 1004.9 | |
| 20260505081021 | 43 | 0.0 | 0.0 | 0.00 | 0.15 | 0.00 | 89 | 1005.0 | |
| 20260505080037 | 43 | 0.0 | 0.0 | 0.00 | 0.15 | 0.00 | 89 | 1005.0 | |
| 20260505075013 | 43 | 0.0 | 1.0 | 0.00 | 0.15 | 0.00 | 89 | 1005.3 | |
| 20260505074009 | 43 | 0.0 | 1.0 | 0.00 | 0.15 | 0.00 | 88 | 1005.4 | |
| 20260505073037 | 43 | 0.0 | 1.0 | 0.00 | 0.15 | 0.00 | 88 | 1005.3 | |
| 20260505072120 | 43 | 0.0 | 0.0 | 0.00 | 0.15 | 0.00 | 88 | 1005.2 | |
| 20260505071116 | 43 | 0.0 | 1.0 | 0.00 | 0.15 | 0.00 | 87 | 1005.3 | |
| 20260505070113 | 44 | 0.0 | 2.0 | 0.00 | 0.15 | 0.00 | 87 | 1005.4 | |
| 20260505065107 | 44 | 0.0 | 1.0 | 0.00 | 0.15 | 0.00 | 87 | 1005.5 | |
| 20260505064102 | 45 | 0.0 | 2.0 | 0.00 | 0.15 | 0.00 | 88 | 1005.6 | |
| 20260505063059 | 44 | 0.0 | 2.0 | 0.00 | 0.15 | 0.00 | 87 | 1005.7 | |
| 20260505062055 | 44 | 0.0 | 2.0 | 0.00 | 0.15 | 0.00 | 87 | 1005.7 | |
| 20260505061050 | 44 | 0.0 | 1.0 | 0.00 | 0.15 | 0.00 | 88 | 1005.9 | |
| 20260505060046 | 44 | 0.0 | 1.0 | 0.00 | 0.15 | 0.00 | 87 | 1006.0 | |
| 20260505055042 | 44 | 0.0 | 1.0 | 0.00 | 0.15 | 0.00 | 87 | 1006.3 | |
| 20260505054038 | 45 | 0.0 | 1.0 | 0.00 | 0.15 | 0.00 | 86 | 1006.3 | |
| 20260505053032 | 45 | 0.0 | 1.0 | 0.00 | 0.15 | 0.00 | 86 | 1006.5 | |
| 20260505052029 | 45 | 0.0 | 1.0 | 0.00 | 0.15 | 0.00 | 86 | 1006.5 | |
| 20260505051025 | 45 | 0.0 | 1.0 | 0.00 | 0.15 | 0.00 | 85 | 1006.5 | |
| 20260505041107 | 47 | 90 | 1.0 | 2.0 | 0.00 | 0.15 | 0.00 | 83 | 1007.1 |
| 20260505040104 | 47 | 0.0 | 1.0 | 0.00 | 0.15 | 0.00 | 83 | 1007.0 | |
| 20260505035058 | 47 | 0.0 | 2.0 | 0.00 | 0.15 | 0.15 | 82 | 1007.2 | |
| 20260505034051 | 47 | 0.0 | 2.0 | 0.00 | 0.15 | 0.15 | 82 | 1007.3 | |
| 20260505033047 | 47 | 90 | 1.0 | 2.0 | 0.00 | 0.15 | 0.15 | 82 | 1007.3 |
| 20260505032031 | 47 | 90 | 1.0 | 2.0 | 0.00 | 0.15 | 0.15 | 82 | 1007.2 |
| 20260505031027 | 47 | 0.0 | 1.0 | 0.00 | 0.15 | 0.15 | 82 | 1007.5 | |
| 20260505030044 | 47 | 0.0 | 2.0 | 0.00 | 0.15 | 0.15 | 82 | 1007.5 | |
| 20260505025019 | 47 | 0.0 | 1.0 | 0.00 | 0.15 | 0.15 | 81 | 1007.5 | |
| 20260505024015 | 48 | 0.0 | 2.0 | 0.00 | 0.15 | 0.15 | 81 | 1007.5 | |
| 20260505023031 | 47 | 0.0 | 1.0 | 0.00 | 0.15 | 0.15 | 81 | 1007.6 | |
| 20260505022007 | 47 | 0.0 | 1.0 | 0.00 | 0.15 | 0.15 | 82 | 1007.7 | |
| 20260505021210 | 47 | 0.0 | 2.0 | 0.00 | 0.15 | 0.15 | 81 | 1007.8 | |
| 20260505020125 | 47 | 0.0 | 2.0 | 0.00 | 0.15 | 0.15 | 81 | 1007.8 | |
| 20260505015101 | 47 | 0.0 | 0.0 | 0.00 | 0.15 | 0.15 | 81 | 1007.8 | |
| 20260505014102 | 47 | 0.0 | 0.0 | 0.00 | 0.15 | 0.15 | 82 | 1008.0 | |
| 20260505013113 | 46 | 0.0 | 0.0 | 0.00 | 0.15 | 0.15 | 83 | 1008.1 | |
| 20260505012049 | 46 | 0.0 | 0.0 | 0.00 | 0.15 | 0.15 | 82 | 1008.1 | |
| 20260505011045 | 46 | 0.0 | 0.0 | 0.00 | 0.15 | 0.15 | 82 | 1008.1 | |
| 20260505010041 | 46 | 0.0 | 0.0 | 0.00 | 0.15 | 0.15 | 82 | 1008.2 | |
| 20260505005035 | 46 | 0.0 | 0.0 | 0.00 | 0.15 | 0.15 | 81 | 1008.1 | |
| 20260505004031 | 46 | 0.0 | 0.0 | 0.00 | 0.15 | 0.15 | 80 | 1008.1 | |
| 20260505003027 | 47 | 0.0 | 0.0 | 0.00 | 0.15 | 0.15 | 79 | 1008.0 |